Alliance, NE

11:38 PM MDT on May 29, 2017 (GMT -0600)
Alliance Municipal

Weather History for KAIA - May, 2013

Change the Weather History Date:

Monday, May 27, 2013

  Actual Average Record
Temperature  
Mean Temperature 64 °F 59 °F  
Max Temperature 78 °F 74 °F 95 °F (2006)
Min Temperature 50 °F 43 °F 32 °F (2005)
Degree Days  
Heating Degree Days 1 7  
Month to date heating degree days 268 301  
Since 1 July heating degree days 7098 7190  
Cooling Degree Days 0 1  
Month to date cooling degree days 22 2  
Year to date cooling degree days 22 2  
Growing Degree Days 15 (Base 50)    
Moisture  
Dew Point 55 °F    
Average Humidity 79    
Maximum Humidity 100    
Minimum Humidity 58    
Precipitation  
Precipitation 0.06 in 0.10 in 1.40 in (1978)
Month to date precipitation 1.69 2.17  
Year to date precipitation 4.51 5.03  
Sea Level Pressure  
Sea Level Pressure 29.72 in    
Wind  
Wind Speed 13 mph (ESE)    
Max Wind Speed 26 mph    
Max Gust Speed 36 mph    
Visibility 7 miles    
Events Rain , Thunderstorm    
T = Trace of Precipitation, MM = Missing Value Source: NWS Daily Summary

Daily Weather History Graph

Daily Weather History Graph

Search for Another Location

Airport or City:

Trip Planner

Search our weather history database for the weather conditions in past years. The results will help you decide how hot, cold, wet, or windy it might be!

Date:

Astronomy

May. 27, 2013 Rise Set
Actual Time 5:20 AM MDT 8:16 PM MDT
Civil Twilight 4:47 AM MDT 8:50 PM MDT
Nautical Twilight 4:05 AM MDT 9:32 PM MDT
Astronomical Twilight 3:16 AM MDT 10:21 PM MDT
Moon 10:56 PM MDT (5/27) 8:01 AM MDT (5/27)
Length of Visible Light 16h 02m
Length of Day
14h 56m
Waning Gibbous, 90% of the Moon is Illuminated
May 27
Waning Gibbous
May 31
Last Quarter
Jun 8
New
Jun 16
First Quarter
Jun 23
Full

Hourly Weather History & Observations

Time (MDT) Temp. Dew Point Humidity Pressure Visibility Wind Dir Wind Speed Gust Speed Precip Events Conditions
12:07 AM 62.6 °F 60.8 °F 94% 29.82 in 3.0 mi East 20.7 mph 26.5 mph N/A   Mostly Cloudy
12:18 AM 62.6 °F 60.8 °F 94% 29.81 in 2.5 mi East 19.6 mph - N/A   Mostly Cloudy
12:27 AM 62.6 °F 60.8 °F 94% 29.80 in 4.0 mi East 19.6 mph - N/A   Mostly Cloudy
12:39 AM 62.6 °F 60.8 °F 94% 29.79 in 5.0 mi East 18.4 mph - N/A   Scattered Clouds
12:53 AM 63.0 °F 61.0 °F 93% 29.68 in 5.0 mi East 17.3 mph - N/A   Partly Cloudy
1:09 AM 62.6 °F 62.6 °F 100% 29.80 in 4.0 mi East 18.4 mph 26.5 mph N/A   Mostly Cloudy
1:53 AM 63.0 °F 62.1 °F 97% 29.68 in 4.0 mi East 12.7 mph - N/A   Overcast
2:29 AM 60.8 °F 60.8 °F 100% 29.80 in 5.0 mi East 6.9 mph - N/A   Mostly Cloudy
2:40 AM 60.8 °F 59.0 °F 94% 29.82 in 5.0 mi SSE 11.5 mph - N/A   Scattered Clouds
2:53 AM 61.0 °F 60.1 °F 97% 29.70 in 6.0 mi SSE 10.4 mph - N/A   Mostly Cloudy
3:00 AM 60.8 °F 59.0 °F 94% 29.82 in 6.0 mi SE 10.4 mph - N/A   Scattered Clouds
3:53 AM 59.0 °F 57.9 °F 96% 29.68 in 6.0 mi East 9.2 mph - N/A   Clear
4:35 AM 59.0 °F 57.2 °F 94% 29.78 in 6.0 mi East 9.2 mph - N/A   Scattered Clouds
4:44 AM 59.0 °F 57.2 °F 94% 29.78 in 5.0 mi East 4.6 mph - N/A   Mostly Cloudy
4:51 AM 59.0 °F 57.2 °F 94% 29.77 in 5.0 mi Calm Calm - N/A   Mostly Cloudy
4:53 AM 59.0 °F 57.9 °F 96% 29.65 in 5.0 mi East 4.6 mph - N/A   Overcast
5:53 AM 60.1 °F 57.9 °F 93% 29.69 in 4.0 mi NE 8.1 mph - N/A   Overcast
6:38 AM 60.8 °F 57.2 °F 88% 29.80 in 2.5 mi NE 9.2 mph - N/A   Overcast
6:53 AM 60.1 °F 57.9 °F 93% 29.68 in 2.5 mi ENE 8.1 mph - N/A   Overcast
7:27 AM 60.8 °F 59.0 °F 94% 29.80 in 3.0 mi ENE 15.0 mph - N/A   Overcast
7:40 AM 60.8 °F 59.0 °F 94% 29.80 in 2.5 mi ENE 12.7 mph 17.3 mph N/A   Overcast
7:53 AM 61.0 °F 59.0 °F 93% 29.71 in 4.0 mi East 17.3 mph 21.9 mph N/A   Overcast
8:03 AM 60.8 °F 59.0 °F 94% 29.81 in 6.0 mi East 15.0 mph - N/A   Overcast
8:53 AM 59.0 °F 57.0 °F 93% 29.73 in 5.0 mi ESE 18.4 mph 24.2 mph N/A   Overcast
9:53 AM 63.0 °F 57.9 °F 84% 29.71 in 10.0 mi SE 18.4 mph 23.0 mph N/A   Overcast
10:15 AM 64.4 °F 59.0 °F 83% 29.80 in 10.0 mi SSE 18.4 mph 26.5 mph N/A   Overcast
10:53 AM 66.0 °F 59.0 °F 78% 29.71 in 10.0 mi SSE 20.7 mph - N/A   Overcast
11:08 AM 66.2 °F 59.0 °F 78% 29.80 in 10.0 mi SSE 16.1 mph - N/A   Overcast
11:53 AM 71.1 °F 60.1 °F 68% 29.68 in 10.0 mi South 11.5 mph 20.7 mph N/A   Mostly Cloudy
12:53 PM 73.0 °F 60.1 °F 64% 29.66 in 10.0 mi SSE 13.8 mph - N/A   Scattered Clouds
1:53 PM 75.9 °F 59.0 °F 56% 29.62 in 10.0 mi SE 15.0 mph 23.0 mph N/A   Scattered Clouds
2:53 PM 75.0 °F 60.1 °F 60% 29.62 in 10.0 mi SSE 16.1 mph 21.9 mph N/A   Clear
3:53 PM 72.0 °F 60.1 °F 66% 29.59 in 10.0 mi SE 17.3 mph - N/A   Clear
4:38 PM 69.8 °F 59.0 °F 68% 29.71 in 9.0 mi SSE 16.1 mph 25.3 mph 0.00 in Rain , Thunderstorm Light Thunderstorms and Rain
4:53 PM 66.9 °F 59.0 °F 76% 29.59 in 10.0 mi East 11.5 mph - 0.00 in Rain , Thunderstorm Light Thunderstorms and Rain
5:00 PM 66.2 °F 50.0 °F 56% 29.67 in 10.0 mi SE 11.5 mph - 0.00 in Rain , Thunderstorm Light Thunderstorms and Rain
5:12 PM 68.0 °F 48.2 °F 49% 29.66 in 10.0 mi South 11.5 mph - 0.00 in   Partly Cloudy
5:25 PM 68.0 °F 41.0 °F 37% 29.68 in 10.0 mi South 11.5 mph - 0.00 in Thunderstorm Clear
5:46 PM 69.8 °F 37.4 °F 31% 29.68 in 10.0 mi SSE 20.7 mph 31.1 mph 0.00 in   Partly Cloudy
5:53 PM 70.0 °F 37.9 °F 31% 29.59 in 10.0 mi SSE 26.5 mph 34.5 mph 0.00 in   Scattered Clouds
6:15 PM 68.0 °F 39.2 °F 35% 29.70 in 10.0 mi SE 20.7 mph 35.7 mph N/A Thunderstorm Mostly Cloudy
6:46 PM 64.4 °F 44.6 °F 49% 29.75 in 10.0 mi ESE 12.7 mph 18.4 mph 0.05 in Rain Light Rain
6:53 PM 62.1 °F 46.9 °F 58% 29.66 in 10.0 mi East 19.6 mph - 0.05 in Rain Light Rain
7:37 PM 60.8 °F 48.2 °F 63% 29.75 in 10.0 mi SSW 12.7 mph - 0.00 in Thunderstorm Thunderstorm
7:53 PM 59.0 °F 50.0 °F 72% 29.67 in 10.0 mi NE 8.1 mph - 0.01 in Rain Light Rain
8:53 PM 55.9 °F 50.0 °F 80% 29.65 in 10.0 mi North 5.8 mph - 0.00 in   Clear
9:53 PM 57.0 °F 45.0 °F 64% 29.64 in 10.0 mi South 4.6 mph - N/A   Clear
10:42 PM 57.2 °F 48.2 °F 72% 29.77 in 10.0 mi NNE 12.7 mph 24.2 mph N/A   Clear
10:53 PM 55.0 °F 48.0 °F 77% 29.69 in 10.0 mi ENE 9.2 mph - N/A   Clear
11:53 PM 52.0 °F 48.0 °F 86% 29.69 in 10.0 mi NE 9.2 mph - N/A   Clear